Вернуться в каталог

INTELSAT 33E DEB

АктивенMEO
NORAD 64400·DEBRIS· XX

Запущен Aug 24, 2016 с Guiana Space Centre

Loading…

Ближайшие Пролёты (ближайшие 24 часа)

TLE

СвежийSource: Space-Track

Эпоха: Sep 13, 2026, 17:11 UTC

1 64400U 16053AE  26256.71640399 -.00000061  00000-0  00000-0 0  9997
2 64400   1.7074  79.5577 0382966 329.7246  28.8634  1.03351329  7074

Отслеживайте INTELSAT 33E DEB в реальном времени с AllMySat

Download on the App Store